This demonstration page uses our WeatherBlox Daily Observations layout. Learn more.

Left ArrowRight Arrow

41.86663, -103.66717

Hourly Observations for September 20, 2018

Temp ( °F °C ) Dew Point ( °F °C ) Humidity (%) Winds ( mph kmh ) Pressure ( in mb ) Visibility ( mi km ) Precip ( " mm )
12:34 am 00:34 Cloudy 57 14 55 13 94 94 E 9 15 29.80 1009 10 16 N/A
12:53 am 00:53 Cloudy 57 13.9 56 13.3 96 96 NE 6 9 29.78 1009 10 16 N/A
1:53 am 01:53 Cloudy 57 13.9 56 13.3 96 96 ESE 10 17 29.79 1009 10 16 N/A
2:53 am 02:53 Cloudy with Mist and Fog 56 13.3 56 13.3 100 100 E 6 9 29.78 1009 3 4 N/A
3:12 am 03:12 Cloudy with Mist and Fog 55 13 55 13 100 100 N N/A 29.80 1009 3 5 N/A
3:45 am 03:45 Cloudy with Mist and Fog 56 13.3 56 13.3 100 100 NW 6 9 29.80 1009 6 10 N/A
3:53 am 03:53 Cloudy with Mist and Fog 56 13.3 56 13.3 100 100 NW 7 11 29.78 1009 3 5 N/A
3:57 am 03:57 Cloudy with Mist and Fog 56 13.3 56 13.3 100 100 NW 7 11 29.80 1009 3 4 N/A
4:05 am 04:05 Cloudy with Mist and Fog 56 13.3 56 13.3 100 100 NNW 5 7 29.80 1009 4 6 N/A
4:30 am 04:30 Cloudy with Mist and Fog 56 13.3 56 13.3 100 100 WNW 6 9 29.80 1009 6 10 N/A
4:40 am 04:40 Cloudy 55 13 55 13 100 100 NW 6 9 29.80 1009 10 16 N/A
4:53 am 04:53 Cloudy 56 13.3 56 13.3 100 100 NW 6 9 29.78 1009 10 16 N/A
5:47 am 05:47 Cloudy 57 14 57 14 100 100 E 3 6 29.77 1008 10 16 N/A
5:53 am 05:53 Cloudy 57 13.9 57 13.9 100 100 N N/A 29.78 1009 10 16 N/A
6:08 am 06:08 Cloudy 57 14 57 14 100 100 N N/A 29.80 1009 10 16 N/A
6:21 am 06:21 Cloudy 56 13.3 56 13.3 100 100 S 5 7 29.80 1009 10 16 N/A
6:53 am 06:53 Cloudy 56 13.3 56 13.3 100 100 SE 7 11 29.79 1009 10 16 N/A
7:53 am 07:53 Cloudy 56 13.3 56 13.3 100 100 ENE 6 9 29.78 1009 10 16 N/A
8:53 am 08:53 Cloudy 58 14.4 56 13.3 93 93 SSE 5 7 29.78 1009 10 16 N/A
9:53 am 09:53 Cloudy 59 15 57 13.9 93 93 SW 5 7 29.77 1008 10 16 N/A
10:39 am 10:39 Cloudy 61 16.1 57 13.9 87 87 W 5 7 29.74 1007 10 16 N/A
10:53 am 10:53 Cloudy 61 16.1 57 13.9 87 87 VRB 3 6 29.77 1008 10 16 N/A
11:27 am 11:27 Mostly Cloudy 65 18.3 58 14.4 78 78 VRB 6 9 29.71 1006 10 16 N/A
11:53 am 11:53 Mostly Cloudy 66 18.9 58 14.4 75 75 NW 7 11 29.76 1008 10 16 N/A
12:53 pm 12:53 Cloudy 65 18.3 58 14.4 78 78 NW 14 22 29.75 1008 10 16 N/A
1:22 pm 13:22 Partly Cloudy 64 18 57 14 78 78 W 8 13 29.71 1006 10 16 N/A
1:53 pm 13:53 Sunny 68 20 58 14.4 70 70 VRB 6 9 29.75 1007 10 16 N/A
2:53 pm 14:53 Sunny 74 23.3 56 13.3 54 54 VRB 5 7 29.72 1007 10 16 N/A
3:53 pm 15:53 Sunny 77 25 55 12.8 47 47 WSW 7 11 29.71 1006 10 16 N/A
4:14 pm 16:14 Sunny with Nearby Thunderstorms 76 24.4 54 12.2 47 47 VRB 3 6 29.59 1002 10 16 N/A
4:29 pm 16:29 Partly Cloudy with Thunderstorms 64 17.8 57 13.9 78 78 NNE 18 30 29.71 1006 10 16 N/A
4:53 pm 16:53 Partly Cloudy with Nearby Thunderstorms 67 19.4 56 13.3 68 68 NNE 14 22 29.78 1008 10 16 N/A
5:00 pm 17:00 Sunny 68 20 57 14 69 69 N 13 20 29.71 1006 10 16 N/A
5:53 pm 17:53 Mostly Sunny 69 20.6 54 12.2 59 59 N 22 35 29.83 1010 10 16 N/A
6:53 pm 18:53 Sunny 61 16.1 52 11.1 72 72 N 12 19 29.91 1013 10 16 N/A
7:53 pm 19:53 Clear 55 12.8 50 10 83 83 NW 5 7 29.98 1015 10 16 N/A
8:53 pm 20:53 Clear 53 11.7 48 8.9 83 83 WNW 5 7 30.02 1017 10 16 N/A
9:53 pm 21:53 Clear 52 11.1 48 8.9 86 86 NW 5 7 30.06 1018 10 16 N/A
10:53 pm 22:53 Clear 49 9.4 46 7.8 90 90 NW 3 6 30.09 1019 10 16 N/A
11:53 pm 23:53 Clear 50 10 47 8.3 89 89 W 3 6 30.10 1019 10 16 N/A

Powered by AerisWeather